Regional Weather Roundup
Issued by NWS

Home | Current Version | Previous Version | Graphics & Text | Print | Product List | Glossary On
Versions: 1 2 3 4 5 6 7 8 9 10 11 12 13 14 15 16 17 18 19 20 21 22 23 24 25 26 27 28 29 30 31 32 33 34 35 36 37 38 39 40 41 42 43 44 45 46 47 48 49 50
000
ASUS43 KDTX 161510
RWRMI
MICHIGAN HOURLY REGIONAL WEATHER ROUNDUP
NATIONAL WEATHER SERVICE DETROIT/PONTIAC MI
1100 AM EDT TUE SEP 16 2014

NOTE: "FAIR" INDICATES FEW OR NO CLOUDS BELOW 12,000 FEET WITH NO
SIGNIFICANT WEATHER AND/OR OBSTRUCTION TO VISIBILITY.

MIZ047>049-052>055-059>063-066>070-074>076-081>083-161600-
SOUTHEAST LOWER MICHIGAN

CITY           SKY/WX    TMP DP  RH WIND       PRES   REMARKS
ADRIAN         MOSUNNY   58  49  72 W6        30.19S
ALMA           CLOUDY    52  51  97 SW5       30.18S FOG
ANN ARBOR      SUNNY     59  45  59 NE5       30.17S
BAD AXE        PTSUNNY   55  55 100 CALM      30.15F
CARO           CLOUDY    51  50  99 CALM      30.16F FOG
DETROIT CITY   SUNNY     60  48  64 N9        30.17S
DETROIT        MOSUNNY   59  48  67 NW6       30.17S
FLINT          MOSUNNY   54  48  80 VRB3      30.18S
GROSSE ILE     SUNNY     59  50  72 N5        30.15F
HILLSDALE      MOSUNNY   57  48  72 CALM      30.18F
HOWELL         MOSUNNY   55  49  83 W5        30.18S

CITY           SKY/WX    TMP DP  RH WIND       PRES   REMARKS
JACKSON        MOSUNNY   58  49  72 VRB3      30.19R
LAMBERTVILLE   MOSUNNY   59  50  72 W5        30.18S
LANSING        CLOUDY    51  50  96 SW3       30.19S FOG
LAPEER         PTSUNNY   54  49  84 CALM      30.18S
MASON          MOSUNNY   56  48  74 CALM      30.18S
MONROE         MOSUNNY   57  50  77 CALM      30.16S
MT. CLEMENS    MOSUNNY   57  49  75 NW5       30.15S
PONTIAC        MOSUNNY   56  49  77 W5        30.16S
PORT HOPE        N/A     59  45  59 VRB3      30.13S
PORT HURON     SUNNY     57  52  82 N5        30.15F
TRI CITIES     MOSUNNY   57  51  80 SW3       30.17F
TROY           SUNNY     59  47  65 CALM      30.18S
SAGINAW HB     SUNNY     54  54 100 S5        30.16F
$$
MIZ043>046-050>051-056>058-064>065-071>073-077>080-161600-
SOUTHWEST LOWER MICHIGAN

CITY           SKY/WX    TMP DP  RH WIND       PRES   REMARKS
BATTLE CREEK   SUNNY     58  48  69 CALM      30.19S
BENTON HARBOR  SUNNY     59  49  69 CALM      30.19S
BIG RAPIDS     MOSUNNY   55  55 100 NW7       30.16S
COLDWATER      SUNNY     58  48  71 N5        30.19S
FREMONT        FOG       54  53  97 W3        30.18S VSB<1/4
HOLLAND        MOSUNNY   62  52  69 NW3       30.19S
GRAND RAPIDS   MOSUNNY   58  52  80 W5        30.19S
IONIA          FAIR      55  54  95 CALM      30.17F
KALAMAZOO      SUNNY     60  48  64 CALM      30.20S
LUDINGTON      SUNNY     57  45  64 NW10      30.17S
MARSHALL       SUNNY     55  49  79 CALM      30.19S
MOUNT PLEASANT CLOUDY    53  51  93 SW6       30.16S
MUSKEGON       SUNNY     61  44  53 NW7       30.19R
SOUTH HAVEN    SUNNY     60  52  75 SW3       30.19S
$$
MIZ016>042-161600-
NORTHERN LOWER MICHIGAN

CITY           SKY/WX    TMP DP  RH WIND       PRES   REMARKS
ALPENA         MOSUNNY   56  47  71 SW6       30.12F
BEAVER ISLAND  SUNNY     59  45  59 SW10      30.11S
BELLAIRE       MOSUNNY   58  43  57 W3        30.13S
CADILLAC       CLOUDY    51  50  98 SW3       30.14S
CHARLEVOIX     SUNNY     59  44  56 W12       30.14F
FRANKFORT      SUNNY     59  42  54 W9        30.15S
GAYLORD        CLOUDY    54  45  71 VRB7      30.12S
GRAYLING       MOSUNNY   54  54 100 W7        30.14S
HARBOR SPRINGS SUNNY     59  42  51 W7        30.11F
HOUGHTON LAKE  CLOUDY    50  48  93 VRB3      30.15S
MANISTEE       SUNNY     54  41  62 NW8       30.17S
OSCODA         SUNNY     57  47  69 W6        30.13F
PELLSTON       MOSUNNY   59  44  57 W12       30.10F
ROGERS CITY    SUNNY     57  46  67 W8        30.12F
TRAVERSE CITY  MOSUNNY   57  43  59 W8        30.13S
$$
MIZ007>008-015-161600-
EASTERN UPPER MICHIGAN

CITY           SKY/WX    TMP DP  RH WIND       PRES   REMARKS
KINROSS        MOSUNNY   55  43  62 SW12G18   30.07F
MACKINAC ISLAN SUNNY     57  44  61 W8G17     30.09S
NEWBERRY       MOSUNNY   55  43  62 SW10      30.07F
MUNISING         N/A     59  39  47 S8        30.05F
$$
MIZ004>006-011>014-085-161600-
CENTRAL UPPER MICHIGAN

CITY           SKY/WX    TMP DP  RH WIND       PRES   REMARKS
MANISTIQUE     SUNNY     56  42  58 W5        30.08F
ESCANABA       MOSUNNY   55  41  58 W12       30.10F
MENOMINEE      SUNNY     54  39  58 W5        30.13F
SAWYER-GWINN   SUNNY     52  39  62 W12       30.07F
$$
MIZ001>003-009>011-084-161600-
WESTERN UPPER MICHIGAN

CITY           SKY/WX    TMP DP  RH WIND       PRES   REMARKS
IRON MOUNTAIN  SUNNY     55  38  52 W9        30.09F
HOUGHTON       MOSUNNY   55  39  54 W20G28    30.00F
COPPER HARBOR    N/A     59  41  51 NW12G21   29.97F
IRONWOOD       SUNNY     55  37  50 W20G26    30.05F
$$

ABBREVIATIONS USED IN REMARKS
   TC - TEMPERATURE IN CELSIUS
  WCI - WIND CHILL INDEX
   HX - HEAT INDEX
  VSB - VISIBILITY




USA.gov is the U.S. government's official web portal to all federal, state and local government web resources and services.